This is the latest recevied weather packets stored in our database for station/object KEOD. If no packets are shown the sender has not sent any weather packets the latest 1 day(s).
| Time | Temp. | Humidity | Pressure | Rain* | Wind** | Luminosity | Snow |
|---|---|---|---|---|---|---|---|
| 1778102607 | 13.89° C | 87% | 1014.6 hPa | - | - | - | - |
| 1778099011 | 13.89° C | 87% | 1014.6 hPa | - | - | - | - |
| 1778097810 | 13.89° C | 87% | 1014.6 hPa | - | - | - | - |
| 1778097212 | 13.89° C | 87% | 1015.6 hPa | - | - | - | - |
| 1778096610 | 15° C | 77% | 1015.2 hPa | - | - | - | - |
| 1778094211 | 15° C | 72% | 1014.9 hPa | - | - | - | - |
| 1778090734 | 15° C | 72% | 1015.2 hPa | - | - | - | - |
| 1778090009 | 12.78° C | 87% | 1014.6 hPa | - | - | - | - |
| 1778089410 | 12.78° C | 87% | 1014.6 hPa | - | - | - | - |
| 1778088813 | 12.78° C | 87% | 1014.6 hPa | - | - | - | - |
| 1778087613 | 11.67° C | 87% | 1014.6 hPa | - | - | - | - |
| 1778087012 | 11.67° C | 87% | 1014.6 hPa | - | - | - | - |
| 1778084612 | 10.56° C | 87% | 1015.2 hPa | - | - | - | - |
| 1778084012 | 10.56° C | 87% | 1015.2 hPa | - | - | - | - |
| 1778083534 | 10.56° C | 87% | 1015.2 hPa | - | - | - | - |
| 1778082210 | 10° C | 93% | 1015.2 hPa | - | - | - | - |
| 1778081611 | 11.67° C | 93% | 1014.6 hPa | - | - | - | - |
| 1778081012 | 10.56° C | 93% | 1014.2 hPa | - | - | - | - |
| 1778080411 | 10.56° C | 93% | 1014.2 hPa | - | - | - | - |
| 1778079812 | 10.56° C | 93% | 1014.2 hPa | - | - | - | - |
| 1778078011 | 10.56° C | 93% | 1013.5 hPa | - | - | - | - |
| 1778077407 | 10.56° C | 93% | 1013.5 hPa | - | - | - | - |
| 1778075609 | 10.56° C | 93% | 1013.5 hPa | - | - | - | - |
| 1778075008 | 10.56° C | 93% | 1013.5 hPa | - | - | - | - |
| 1778071410 | 10.56° C | 93% | 1012.5 hPa | - | - | - | - |
* Rain since midnight (hover to see other rain measurements)
** Current wind speed in m/s (hover to see current wind gust speed)